This is the latest recevied weather packets stored in our database for station/object K4HOG. If no packets are shown the sender has not sent any weather packets the latest 10 day(s).
| Time | Temp. | Humidity | Pressure | Rain* | Wind** | Luminosity | Snow |
|---|---|---|---|---|---|---|---|
| 1777637229 | 21.67° C | 98% | 1012.2 hPa | 0 mm | - | 91 W/m² | - |
| 1777636927 | 21.67° C | 98% | 1012 hPa | 0 mm | - | 83 W/m² | - |
| 1777636621 | 21.11° C | 98% | 1011.9 hPa | 0 mm | - | 68 W/m² | - |
| 1777636319 | 21.11° C | 98% | 1012 hPa | 0 mm | - | 59 W/m² | - |
| 1777636013 | 21.11° C | 98% | 1011.9 hPa | 0 mm | - | 52 W/m² | - |
| 1777635709 | 21.11° C | 98% | 1011.8 hPa | 0 mm | - | 44 W/m² | - |
| 1777635406 | 20.56° C | 98% | 1011.7 hPa | 0 mm | - | 35 W/m² | - |
| 1777635103 | 20.56° C | 98% | 1011.7 hPa | 0 mm | - | 30 W/m² | - |
| 1777634799 | 20.56° C | 98% | 1011.8 hPa | 0 mm | - | 23 W/m² | - |
| 1777634496 | 20.56° C | 98% | 1011.8 hPa | 0 mm | - | 18 W/m² | - |
| 1777634193 | 20.56° C | 98% | 1011.6 hPa | 0 mm | - | 13 W/m² | - |
| 1777633889 | 20.56° C | 98% | 1011.6 hPa | 0 mm | - | 11 W/m² | - |
| 1777633587 | 20.56° C | 98% | 1011.3 hPa | 0 mm | - | 7 W/m² | - |
| 1777633285 | 20.56° C | 98% | 1011.2 hPa | 0 mm | - | 4 W/m² | - |
| 1777632982 | 20.56° C | 98% | 1011.2 hPa | 0 mm | - | 3 W/m² | - |
| 1777632678 | 20.56° C | 98% | 1011.4 hPa | 0 mm | - | 2 W/m² | - |
| 1777632375 | 20.56° C | 98% | 1011.2 hPa | 0 mm | - | 1 W/m² | - |
| 1777632072 | 20.56° C | 98% | 1011.2 hPa | 0 mm | - | 0 W/m² | - |
| 1777631770 | 20.56° C | 98% | 1011 hPa | 0 mm | - | 0 W/m² | - |
| 1777631468 | 20.56° C | 98% | 1010.7 hPa | 0 mm | - | 0 W/m² | - |
| 1777631164 | 20.56° C | 98% | 1010.9 hPa | 0 mm | - | 0 W/m² | - |
| 1777630862 | 20.56° C | 98% | 1010.9 hPa | 0 mm | - | 0 W/m² | - |
| 1777630557 | 20.56° C | 98% | 1010.7 hPa | 0 mm | - | 0 W/m² | - |
| 1777630254 | 20.56° C | 98% | 1010.8 hPa | 0 mm | - | 0 W/m² | - |
| 1777629952 | 20.56° C | 98% | 1010.8 hPa | 0 mm | - | 0 W/m² | - |
* Rain latest hour (hover to see other rain measurements)
** Current wind speed in m/s (hover to see current wind gust speed)